TITAN 3C TRANSTAGE R/B, 9855

Orbit data source: Space-Track

TITAN 3C TRANSTAGE R/B, 9855 is space debris in GEO originally from a launch on Sun, 06 Feb 1977 UTC launched from the Air Force Eastern Test Range (AFETR). Debris objects in space refer to the collection of defunct objects orbiting the Earth. Examples of debris include non-operational satellites, rocket bodies, and fragments generated from explosions, collisions, or faulty payload assembly.

Loading next visibility...
Identifier
9855, 1977-007C
Orbit
GEO
Last TLE update
15 hours ago
Origin
Manufacturer
Martin Marietta
Mission
Spacecraft
Bus & Motor
TRANSTAGE, Unknown motor
Mass
~1,950 kg wet, ~1,950 kg dry
Launch date (UTC)
1977-02-06 (48 years ago)
Launch vehicle
Unknown
Launch site
Air Force Eastern Test Range (AFETR)
Object type
Payload
Rocket body
Debris
Shape & HBR
Cyl + 2 Nozzle, 4.6 m
Radar Cross Section
14.974 m²

Expand to show TLE details & history

TLE from 15 hours ago
0 TITAN 3C TRANSTAGE R/B
1 09855U 77007C   25186.31637337  .00000057  00000-0  00000-0 0  9995
2 09855   4.2887 273.5909 0015622  36.7821 323.6167  1.00211289 21887
Epoch: 2025-07-05T07:35Z
TLE epoch observation values (Epoch: 2025-07-05T07:35:34.659Z)
Latitude
-0°
Longitude
-123.57119°
Altitude
35,749.805 km
Speed
3.078 km/s
True Right ascension
18h 15m 31s
True Declination
0° 00' 00"
Sunlit
Object was in daylight at epoch
Visualization orbit readout
Latitude
-3.25724°
Longitude
105.75202°
Altitude
35,867.786 km
Speed
3.069 km/s
Apparent Right ascension
09h 23m 16s
Apparent Declination
-9° 46' 12"
Sunlit
Object is in daylight
Visualization observer readout
Local Sidereal Time
10:47:13
Azimuth
206.099° SW
Elevation
36.643°
Doppler factor
1
Orbital elements
Apogee altitude
35,870.522 km
Perigee altitude
35,738.726 km
Semi-major axis
42,182.761 km
Eccentricity
0.00156
Inclination
4.2887°
RAAN
273.5909°
Arg. of periapsis
36.7821°
True anomaly
Unknown
Mean anomaly
323.6167°
Eccentric anomaly
Unknown
Mean motion
0.25052 °/min
Orbital period
1,437.02 mins
BSTAR
0
Loading historical data...
9855 neighbors
Loading maneuver chart data...
Loading SW <> Apogee altitude chart data...
Loading historical data...
Loading historical data...
Loading historical data...
Loading historical data...
Loading historical data...
Loading historical data...
Loading historical data...
Other satellites on launch #7 in the year 1977 (1977-02-06 UTC)

TITAN 3C TRANSTAGE R/B Visibility forecast

Observer location: undefined°, undefined°

Span
Click to sort rows by Start time (UTC) header in descending order
Start Az.
Max El. time (UTC)
Max El. Az.
Max El.
End time (UTC)
End Az.
1440 mins2025-07-05 22:50:58.063Z206.09° SW2025-07-06 13:38:58.063Z209.894° SW35.014°2025-07-06 22:50:58.063Z206.358° SW
|